User: anonymous   Login
Location: Caltech
(34.1382°N, 118.1253°W)
Time: 15:04:21
(UTC-07:00)
Language:

GPS 2-04 Rocket1 - Orbit

View from above orbital plane
View from above orbital plane
View from above satellite
View from above satellite

Ground track
Ground track

The orbit data is extracted from the following two-line orbital elements,

1 20303U 89085B   14298.10059520  .00020912  00000-0  96040-3 0  9046
2 20303 035.6337 274.6757 0136106 325.1217 116.6386 15.11596052353549
Epoch (UTC): 25 October 2014 02:24:51
Eccentricity: 0.0136106
inclination: 35.6337°
perigee height: 437 km
apogee height: 625 km
right ascension of ascending node: 274.6757°
argument of perigee: 325.1217°
revolutions per day: 15.11596052
mean anomaly at epoch: 116.6386°
orbit number at epoch: 35354

The dashed part of the orbit path shows where the satellite is in the earth's shadow,  

DLR